ZHONGXING-12

Last updated on Tue Sep 22 2026 00:03:12 GMT+0000 (Coordinated Universal Time)

1 39017U 12067A 26264.50640409 -.00000211 00000+0 00000+0 0 9997 2 39017 0.0135 143.7691 0002754 26.1968 100.2430 1.00273460 50471
UTC large
Height (km)
Speed (km/s)
/
Latitude / Longitude
Inclination (degrees)
Orbital Period (minutes)
Azimuth
Elevation
Range (km)
Doppler Factor

Next 0 passes for location: London (51.5072 / 0.1276)

No passes found over London.
ZHONGXING-12